TimeICT,TemperatureF,Dew PointF,Humidity,Sea Level PressureIn,VisibilityMPH,Wind Direction,Wind SpeedMPH,Gust SpeedMPH,PrecipitationIn,Events,Conditions,WindDirDegrees,DateUTC
12:00 AM,78.8,75.2,89,29.77,5.6,East,2.3,-,N/A,Rain-Thunderstorm,Light Thunderstorms and Rain,80,2013-07-06 17:00:00
12:30 AM,77.0,75.2,94,29.74,5.6,SSE,1.2,-,N/A,Rain-Thunderstorm,Light Thunderstorms and Rain,150,2013-07-06 17:30:00
1:00 AM,78.8,75.2,89,29.74,5.6,Variable,2.3,-,N/A,Rain-Thunderstorm,Light Thunderstorms and Rain,0,2013-07-06 18:00:00
7:00 AM,78.8,75.2,89,29.74,5.6,Calm,Calm,-,N/A,Rain,Light Rain,0,2013-07-07 00:00:00
8:00 AM,80.6,75.2,84,29.77,5.6,Calm,Calm,-,N/A,,Mostly Cloudy,0,2013-07-07 01:00:00
8:30 AM,80.6,75.2,84,29.77,5.6,Calm,Calm,-,N/A,,Mostly Cloudy,0,2013-07-07 01:30:00
9:00 AM,84.2,75.2,74,29.77,5.6,Calm,Calm,-,N/A,,Partly Cloudy,0,2013-07-07 02:00:00
9:30 AM,84.2,75.2,74,29.77,5.6,SW,6.9,-,N/A,,Scattered Clouds,230,2013-07-07 02:30:00
10:00 AM,84.2,75.2,74,29.77,5.6,Calm,Calm,-,N/A,,Scattered Clouds,0,2013-07-07 03:00:00
10:30 AM,86.0,75.2,70,29.77,5.6,West,8.1,-,N/A,,Scattered Clouds,260,2013-07-07 03:30:00
11:00 AM,86.0,73.4,66,29.77,5.6,SW,5.8,-,N/A,,Scattered Clouds,220,2013-07-07 04:00:00
11:30 AM,87.8,73.4,62,29.77,5.6,WSW,9.2,-,N/A,,Scattered Clouds,240,2013-07-07 04:30:00
12:00 PM,87.8,75.2,66,29.77,5.6,WSW,6.9,-,N/A,,Scattered Clouds,240,2013-07-07 05:00:00
12:30 PM,87.8,75.2,66,29.74,5.6,Calm,Calm,-,N/A,,Scattered Clouds,0,2013-07-07 05:30:00
1:00 PM,86.0,75.2,70,29.74,5.6,SSE,6.9,-,N/A,,Scattered Clouds,150,2013-07-07 06:00:00
1:30 PM,87.8,75.2,66,29.71,5.6,SSW,6.9,-,N/A,,Scattered Clouds,200,2013-07-07 06:30:00
2:00 PM,87.8,75.2,66,29.71,5.6,SE,6.9,-,N/A,,Scattered Clouds,140,2013-07-07 07:00:00
2:30 PM,87.8,75.2,66,29.68,5.6,ESE,4.6,-,N/A,,Scattered Clouds,110,2013-07-07 07:30:00
3:00 PM,87.8,75.2,66,29.68,5.6,SW,4.6,-,N/A,,Scattered Clouds,220,2013-07-07 08:00:00
3:30 PM,84.2,75.2,74,29.68,-9999.0,West,17.3,-,N/A,Rain,Rain,280,2013-07-07 08:30:00
4:00 PM,78.8,75.2,89,29.71,5.0,West,13.8,-,N/A,Rain,Light Rain,280,2013-07-07 09:00:00
4:30 PM,78.8,75.2,89,29.71,5.0,NW,5.8,-,N/A,Rain,Rain,320,2013-07-07 09:30:00
5:00 PM,78.8,75.2,89,29.71,5.6,North,5.8,-,N/A,,Mostly Cloudy,380,2013-07-07 10:00:00
5:30 PM,78.8,75.2,89,29.68,5.6,WNW,5.8,-,N/A,,Mostly Cloudy,300,2013-07-07 10:30:00
6:00 PM,78.8,75.2,89,29.68,5.6,Variable,3.5,-,N/A,,Mostly Cloudy,0,2013-07-07 11:00:00
7:00 PM,78.8,75.2,89,29.71,5.6,Variable,2.3,-,N/A,,Mostly Cloudy,0,2013-07-07 12:00:00
7:30 PM,78.8,75.2,89,29.71,5.6,Variable,2.3,-,N/A,,Scattered Clouds,0,2013-07-07 12:30:00
8:00 PM,78.8,75.2,89,29.74,5.6,Variable,1.2,-,N/A,,Scattered Clouds,0,2013-07-07 13:00:00
8:30 PM,78.8,77.0,94,29.77,5.6,East,4.6,-,N/A,,Scattered Clouds,90,2013-07-07 13:30:00
9:00 PM,78.8,77.0,94,29.77,5.6,Variable,1.2,-,N/A,,Scattered Clouds,0,2013-07-07 14:00:00
9:30 PM,78.8,77.0,94,29.77,5.6,Variable,1.2,-,N/A,,Scattered Clouds,0,2013-07-07 14:30:00
10:00 PM,78.8,77.0,94,29.80,5.6,Variable,2.3,-,N/A,,Scattered Clouds,0,2013-07-07 15:00:00
10:30 PM,78.8,77.0,94,29.80,5.6,Variable,3.5,-,N/A,,Scattered Clouds,0,2013-07-07 15:30:00
11:00 PM,78.8,77.0,94,29.80,5.6,Variable,3.5,-,N/A,,Scattered Clouds,0,2013-07-07 16:00:00
11:30 PM,78.8,77.0,94,29.80,5.6,Variable,2.3,-,N/A,,Scattered Clouds,0,2013-07-07 16:30:00